STARLINK-3883, 52493

Orbit data source: Space-Track

STARLINK-3883, 52493 is a payload satellite owned by SpaceX/Seattle (US) in LEO that was launched on Fri, 06 May 2022 UTC via an FALCON 9 launch vehicle from the Air Force Eastern Test Range (AFETR). Payload-class satellites include a variety of spacecraft equipped with specific instruments for various scientific and technological missions. These include communications satellites like Starlink; space stations such as the ISS; scientific satellites like the Hubble; Earth observation satellites from companies like Planet Labs, Umbra, and HawkEye 360; GPS; miniature CubeSats for education and research; and military/defense satellites.

Loading next visibility...
Identifier
52493, 2022-049AU
Orbit
LEO
Country
Flag of USUS
Related business
Manufacturer
SpaceX/Seattle
Mission
Operational Commercial Communications
Bus & Motor
STARLINK, Unknown motor
Mass
297 kg wet, ~220 kg dry
Launch date (UTC)
2022-05-06 (4 years ago)
Launch vehicle
FALCON 9
Launch site
Air Force Eastern Test Range (AFETR)
Object type
Payload
Rocket body
Debris
Shape & HBR
Box + 1 Pan, 10.1 m
Radar Cross Section
13.562 m², Large (>1 m²)

Expand to show TLE details & history
Last TLE update: 2 days ago

TLE from 2 days ago
0 STARLINK-3883
1 52493U 22049AU  26171.37115670  .00001470  00000-0  11043-3 0  9991
2 52493  53.1594 308.0469 0001073  94.3133 265.7981 15.08830109227897
Epoch: 2026-06-20T08:54Z
TLE epoch observation values (Epoch: 2026-06-20T08:54:27.938Z)
Latitude
-0.00004°
Longitude
-94.15628°
Altitude
540.719 km
Speed
7.593 km/s
True Right ascension
20h 32m 11s
True Declination
0° 00' 00"
Sunlit
Object was in full shadow at epoch
Visualization orbit readout
Latitude
Unknown
Longitude
Unknown
Altitude
Unknown
Speed
Unknown
Apparent Right ascension
Unknown
Apparent Declination
Unknown
Sunlit
N/A
Visualization observer readout
Local Sidereal Time
21:44:38
Azimuth
Unknown
Elevation
Unknown
Doppler factor
Unknown
Orbital elements
Apogee altitude
540.77 km
Perigee altitude
539.286 km
Semi-major axis
6,918.165 km
Eccentricity
0.00011
Inclination
53.1594°
RAAN
308.0469°
Arg. of periapsis
94.3133°
True anomaly
265.78584°
Mean anomaly
265.7981°
Eccentric anomaly
265.79197°
Mean motion
3.77187 °/min
Orbital period
95.44 mins
BSTAR
0.00011043
Loading maneuver chart data...
Computing Atmospheric mass density...
Loading historical data...
Loading historical data...
Loading historical data...
Loading historical data...
Loading historical data...
Loading historical data...
Loading historical data...

Documentation

Showing up to 5 results
|